GSAT0201 (GALILEO 5)

Last updated on Thu Jul 03 2025 00:02:33 GMT+0000 (Coordinated Universal Time)

1 40128U 14050A 25183.07541464 -.00000101 00000+0 00000+0 0 9996 2 40128 49.2562 287.7220 1633884 165.9526 199.2413 1.85519872 71823
UTC large
Height (km)
Speed (km/s)
/
Latitude / Longitude
Inclination (degrees)
Orbital Period (minutes)
Azimuth
Elevation
Range (km)
Doppler Factor

Next 0 passes for location: London (51.5072 / 0.1276)

Sorry there are no passes over London.